Location: Dez�joul
(45.1899°N, 2.1137°E)
Time: 05:04:51
(UTC+00:00)

Daily predictions for brighter satellites

Satellite Brightness Start Highest point End
(mag) Time Altitude Azimuth Time Altitude Azimuth Time Altitude Azimuth
SJ 16-02 3.4 00:09:53 22° NE 00:09:53 22° NE 00:11:46 10° NE
Okean 2 Rocket 4.5 00:10:41 37° N 00:10:41 37° N 00:13:29 10° N
SL-16 R/B 2.6 00:08:19 10° NNW 00:13:48 57° NE 00:13:48 57° NE
Cosmos 2263 Rocket 4.4 00:14:58 12° E 00:14:58 12° E 00:16:43 10° ENE
Nadezhda 4 Rocket 4.2 00:10:02 10° NNW 00:15:44 61° WNW 00:15:44 61° WNW
Meteor 2-13 Rocket 4.4 00:11:28 10° N 00:17:19 76° NE 00:17:19 76° NE
Cosmos 2297 Rocket 2.5 00:28:55 60° NW 00:28:55 60° NW 00:34:05 10° NNE
Cosmos 2344 4.4 00:23:36 10° NW 00:33:20 75° WSW 00:38:10 44° SSE
USA 229 DEB 4.1 00:36:45 47° ESE 00:36:45 47° ESE 00:42:44 10° NE
USA 229 4.1 00:36:53 46° ESE 00:36:53 46° ESE 00:42:49 10° NE
Cosmos 1092 Rocket 4.0 00:30:49 10° NNW 00:36:34 67° WNW 00:36:34 67° WNW
Cosmos 2219 3.9 00:41:47 44° WNW 00:41:50 44° WNW 00:47:12 10° NNE
Meteor 1-15 Rocket 4.3 00:43:07 72° N 00:43:07 72° N 00:48:08 10° N
Cosmos 1898 Rocket 4.4 00:43:57 42° ENE 00:43:57 42° ENE 00:47:59 10° NNE
Cosmos 2237 Rocket 3.6 00:38:08 10° NW 00:41:12 26° WNW 00:41:12 26° WNW
NOSS 3-1 (A) 4.2 00:48:36 36° E 00:48:36 36° E 00:53:23 10° NE
Meteor 1-24 Rocket 4.0 00:43:56 10° N 00:49:06 54° ENE 00:49:06 54° ENE
Cosmos 1680 Rocket 3.8 00:47:07 10° NNW 00:51:28 61° N 00:51:28 61° N
Cosmos 1461 4.2 00:55:29 42° NNE 00:55:29 42° NNE 00:58:40 10° NNE
CZ-2D R/B 2.8 01:02:34 10° NNE 01:07:51 46° E 01:08:00 46° ESE
Timation 1 Rocket 4.5 01:10:12 61° ESE 01:10:13 61° ESE 01:16:06 10° NNE
SL-16 R/B 2.8 01:09:26 50° SE 01:10:56 65° ENE 01:17:08 10° N
Cosmos 1943 4.3 01:07:43 10° NNW 01:13:02 41° ENE 01:16:10 22° ESE
Cosmos 1626 4.2 01:13:35 10° N 01:15:17 25° N 01:15:17 25° N
Cosmos 1655 Rocket 3.9 01:11:21 10° N 01:17:37 79° E 01:18:27 67° SE
Cosmos 2227 Rocket 3.3 01:18:32 31° WNW 01:19:18 32° NW 01:24:22 10° N
Cosmos 2292 Rocket 4.4 01:14:22 10° N 01:21:22 73° E 01:22:07 64° SE
Cosmos 1470 4.1 01:24:18 39° NE 01:24:18 39° NE 01:27:07 10° NNE
Cosmos 1953 4.3 01:23:54 22° E 01:23:54 22° E 01:26:59 10° NE
Meteor 1-22 Rocket 4.0 01:25:04 79° NW 01:25:04 79° NW 01:30:15 10° N
Meteor 2-5 Rocket 4.0 01:20:12 10° NNW 01:25:04 54° WNW 01:25:04 54° WNW
NPP 3.9 01:21:23 10° NNE 01:26:42 56° E 01:27:04 54° ESE
Helios 1B rocket 4.2 01:23:32 10° N 01:25:58 26° NW 01:25:58 26° NW
Cosmos 2279 Rocket 4.0 01:29:43 59° W 01:30:08 61° WNW 01:36:17 10° N
Cosmos 858 Rocket 4.4 01:32:00 87° NE 01:32:00 87° NE 01:37:13 10° NNE
AQUA 4.3 01:29:44 10° NNE 01:34:23 51° E 01:34:26 51° ESE
Exosat Rocket 4.4 01:36:53 51° S 01:39:01 75° ESE 01:45:09 10° NNE
Cosmos 2180 Rocket 4.4 01:39:58 61° WSW 01:40:34 64° W 01:46:41 10° N
Resurs 1-4 Rocket 1.9 01:36:02 10° NNE 01:41:20 88° ESE 01:41:36 81° S
NOSS 2-3 (E) 3.7 01:44:49 76° NNE 01:44:49 76° NNE 01:49:28 10° NE
Cosmos 2227 4.1 01:44:00 68° S 01:44:39 78° ESE 01:50:26 10° NNE
Cosmos 2098 Rocket 3.9 01:39:26 10° N 01:45:09 84° W 01:46:32 58° S
SJ 16-02 2.9 01:46:52 26° NW 01:46:52 26° NW 01:50:11 10° N
NOSS 3-1 (C) 3.6 01:48:09 47° W 01:49:18 56° NW 01:55:40 10° NNE
Cosmos 2263 Rocket 2.0 01:56:40 67° SSW 01:57:27 87° ESE 02:03:03 10° NNE
SL-16 R/B 3.9 01:53:16 10° NW 01:55:38 19° WNW 01:55:38 19° WNW
Cosmos 2298 Rocket 4.5 01:57:57 46° SE 01:59:01 54° ESE 02:04:13 10° NNE
Cosmos 724 4.5 01:58:05 10° NW 02:03:51 52° WSW 02:03:51 52° WSW
Cosmos 372 Rocket 3.9 02:04:37 65° S 02:05:23 83° ESE 02:10:41 10° NNE
Cosmos 1937 Rocket 4.0 02:07:18 44° W 02:07:57 47° WNW 02:13:06 10° N
NOSS 2-3 (D) 3.8 02:08:30 58° WNW 02:08:50 60° NW 02:13:51 10° NNE
COBE Rocket 3.6 02:08:33 74° SSW 02:08:56 84° W 02:13:36 10° NNW
SL-08 R/B 4.4 02:05:26 15° SE 02:09:15 44° ENE 02:13:55 10° N
Cosmos 1809 Rocket 4.3 02:04:53 10° N 02:11:01 83° W 02:13:15 42° S
Cosmos 1455 Rocket 3.9 02:12:38 38° WNW 02:12:38 38° WNW 02:16:29 10° N
ADEOS II 2.2 02:07:42 10° NNE 02:12:58 69° ESE 02:14:31 45° S
Cosmos 1626 Rocket 3.4 02:08:45 10° N 02:13:03 79° W 02:13:03 79° W
Cosmos 2285 Rocket 4.2 02:11:00 37° S 02:13:26 62° ESE 02:19:38 10° NNE
ATLAS CENTAUR R/B 1.6 02:13:46 56° ESE 02:13:46 56° ESE 02:17:34 10° NE
Cosmos 2297 Rocket 4.5 02:10:56 10° WNW 02:13:43 14° NW 02:16:31 10° N
Cosmos 1726 2.4 02:14:19 63° N 02:14:19 63° N 02:17:27 10° N
CZ-4B R/B 3.2 02:11:07 10° NNE 02:15:54 88° WNW 02:16:40 63° SSW
Cosmos 1844 Rocket 4.1 02:17:42 18° SSE 02:20:42 30° ESE 02:25:28 10° NE
Cosmos 2266 Rocket 4.3 02:15:50 10° NNW 02:21:48 46° W 02:22:57 41° WSW
GEOS 3 Rocket 3.9 02:21:16 10° NNE 02:26:37 62° NW 02:28:25 40° WSW
USA 229 DEB 4.4 02:24:10 27° W 02:27:17 44° NW 02:33:53 10° NNE
USA 229 4.4 02:24:18 27° W 02:27:23 44° NW 02:33:58 10° NNE
Meteor 2-10 4.2 02:27:11 46° SW 02:28:47 69° WNW 02:34:30 10° N
Cosmos 2084 3.4 02:28:47 66° SW 02:29:25 89° NW 02:33:53 10° NE
Meteor 1-21 Rocket 4.1 02:24:02 10° NNW 02:29:34 72° W 02:31:40 39° S
Meteor 2-21 4.4 02:23:34 10° NNW 02:29:37 69° W 02:32:12 36° SSW
CBERS-1 3.9 02:24:35 10° N 02:29:43 77° WNW 02:31:10 47° SSW
Cosmos 468 4.5 02:24:24 10° NNW 02:29:43 88° ENE 02:33:36 19° SSE
ARIANE 5 R/B 3.0 02:28:10 10° NNE 02:33:20 56° E 02:36:11 26° S
Cosmos 1932 4.4 02:27:51 10° NW 02:34:15 64° WSW 02:40:30 10° SSE
Cosmos 1244 Rocket 4.5 02:28:52 10° N 02:35:15 88° W 02:39:39 21° S
Cosmos 1758 Rocket 3.8 02:31:35 10° N 02:35:54 68° E 02:38:14 26° SSE
Cosmos 1603 4.1 02:33:16 10° NW 02:38:32 39° WSW 02:39:05 38° WSW
NOSS 3-1 (A) 4.1 02:36:02 28° W 02:38:32 44° NW 02:44:46 10° NNE
Cosmos 1340 Rocket 4.4 02:42:44 21° WNW 02:42:44 21° WNW 02:45:30 10° NNW
Cosmos 2150 Rocket 4.0 02:42:28 41° SW 02:44:13 70° WNW 02:49:29 10° NNE
Cosmos 494 Rocket 4.2 02:39:51 10° NNW 02:45:02 73° ENE 02:50:14 10° SSE
H-2A R/B 3.7 02:43:37 10° SE 02:47:16 32° ENE 02:50:55 10° N
CZ-2D R/B 3.3 02:43:03 10° N 02:47:39 28° WNW 02:49:19 24° W
S3M 4.5 02:45:35 13° S 02:51:11 62° E 02:57:28 10° NNE
Cosmos 1703 3.1 02:47:29 10° NNW 02:51:28 74° W 02:52:42 42° S
Cosmos 1825 Rocket 3.5 02:50:08 10° N 02:54:29 84° E 02:57:30 19° S
SL-16 R/B 3.7 02:54:31 22° W 02:55:00 23° W 02:59:49 10° NW
Cosmos 1125 Rocket 3.4 02:54:00 33° SSW 02:56:27 83° WNW 03:01:47 10° NNE
Cosmos 1943 3.8 02:52:00 10° NW 02:56:57 33° WSW 02:57:52 31° WSW
USA 215 3.5 02:53:14 10° NE 02:59:45 62° SE 03:03:50 24° SSW
Cosmos 1953 3.3 02:59:36 29° W 03:00:02 30° WNW 03:03:39 10° NNW
IRS-1C 4.2 02:55:44 10° N 03:01:02 66° WNW 03:03:50 28° SW
IRS-1D 4.3 02:59:22 10° N 03:04:04 38° WNW 03:06:07 27° WSW
Cosmos 1328 3.8 03:01:20 10° NNW 03:05:17 60° W 03:07:01 31° SSW
Cosmos 1953 Rocket 3.7 03:01:27 10° N 03:05:58 75° E 03:10:24 10° SSE
CZ-2D R/B 3.3 03:06:35 10° NNE 03:10:36 89° ESE 03:12:51 25° SSW
Meteor 2-8 Rocket 4.5 03:15:17 19° SSW 03:19:47 66° W 03:25:53 10° N
Resurs 1-4 Rocket 4.0 03:17:34 10° NNW 03:20:25 15° WNW 03:22:40 12° W
Cosmos 1606 Rocket 3.7 03:19:25 23° SSW 03:22:02 60° W 03:26:29 10° N
Atlas Centaur 2 3.8 03:20:39 18° SSW 03:23:18 23° S 03:28:54 10° SE
NOSS 2-2 (E) 3.1 03:22:45 26° SSW 03:24:38 79° SE 03:28:36 10° NE
NOSS 2-2 (D) 3.4 03:23:29 23° SSW 03:25:33 61° SE 03:29:21 10° NE
IDEFIX/ARIANE 42P 2.6 03:24:31 10° N 03:29:43 70° WNW 03:34:08 14° SSW
USA 267 3.8 03:25:33 10° ESE 03:32:00 64° NNE 03:38:26 10° NW
Cosmos 1908 4.5 03:31:23 21° WSW 03:32:46 26° WNW 03:36:05 10° NNW
MSX 3.8 03:29:50 10° NNE 03:35:38 90° WNW 03:41:26 10° SSW
PSLV R/B 4.4 03:32:03 10° NNE 03:36:20 50° E 03:40:32 10° S
Cosmos 1726 Rocket 3.8 03:33:33 18° SSW 03:36:45 52° WNW 03:41:08 10° N
Cosmos 2228 3.7 03:36:23 19° SW 03:39:03 38° WNW 03:43:11 10° N
Cosmos 2315 Rocket 4.3 03:34:31 10° S 03:40:49 74° E 03:47:12 10° NNE
Cosmos 2263 Rocket 3.9 03:38:22 10° W 03:42:09 18° NW 03:45:58 10° N
Cosmos 1844 3.7 03:37:25 14° SSW 03:42:28 79° WNW 03:48:16 10° NNE
Cosmos 1455 4.2 03:45:40 10° SSE 03:49:04 30° E 03:52:30 10° NNE
CZ-2C R/B 2.9 03:45:32 10° N 03:49:14 52° WNW 03:52:32 12° SSW
Cosmos 1356 Rocket 4.1 03:46:41 16° SW 03:49:38 37° WNW 03:53:28 10° N
ADEOS II 3.7 03:48:34 10° NNW 03:52:07 19° WNW 03:55:27 11° W
Cosmos 1300 3.1 03:49:36 13° SSW 03:52:44 44° WNW 03:56:26 10° N
ATLAS CENTAUR R/B 3.1 03:49:57 10° W 03:52:51 20° NW 03:55:46 10° N
ERS-2 2.2 03:52:11 10° S 03:55:44 56° WSW 03:59:21 10° NNW
CZ-4C R/B 3.5 03:55:39 10° SSW 03:58:41 34° W 04:01:50 10° NNW
Cosmos 1400 Rocket 4.4 03:56:38 10° SSE 04:00:11 35° E 04:03:43 10° NNE
Cosmos 1269 Rocket 4.4 03:55:37 10° NNW 04:00:37 44° WSW 04:05:36 10° S
Cosmos 2278 Rocket 3.4 03:58:15 10° S 04:03:31 42° ESE 04:08:49 10° NE
Cosmos 1844 Rocket 3.2 03:59:23 12° SW 04:04:23 44° WNW 04:09:43 10° NNE
SAR-Lupe-4 4.0 04:02:11 10° SSE 04:05:43 66° ENE 04:09:18 10° N
Cosmos 1076 Rocket 4.1 04:02:33 10° N 04:06:54 64° E 04:11:13 10° SSE
Cosmos 2251 Rocket 4.1 04:02:35 10° NNW 04:07:57 65° ENE 04:13:17 10° SSE
NOSS 2-2 (C) 3.6 04:05:43 11° WSW 04:08:58 47° NW 04:12:50 10° NNE
Cosmos 1812 Rocket 4.1 04:04:48 10° S 04:09:03 62° E 04:13:22 10° NNE
Cosmos 1833 Rocket 3.8 04:04:16 10° NNW 04:09:46 50° ENE 04:15:14 10° SE
Lacrosse 5 rocket 2.9 04:05:38 10° SSW 04:09:47 35° SE 04:14:00 10° ENE
NOSS 3-2 (A) 4.2 04:03:56 10° NW 04:11:29 85° NE 04:20:00 10° SE
ARIANE 5 R/B 4.0 04:08:04 10° NNW 04:12:02 22° WNW 04:16:00 10° WSW
USA 281 3.6 04:06:03 10° NNE 04:12:37 66° ESE 04:19:07 10° SSW
SeaSat 1 2.7 04:10:31 10° NNE 04:15:29 74° ESE 04:20:24 10° SSW
Meteor 2-10 Rocket 3.8 04:15:05 10° S 04:20:19 78° E 04:25:50 10° NNE
SAR-Lupe-1 4.0 04:17:05 10° SSE 04:20:39 86° WSW 04:24:15 10° NNW
H-2A R/B 3.1 04:20:01 10° SSW 04:23:17 23° W 04:26:35 10° NW
Cosmos 2058 Rocket 4.2 04:19:45 10° SW 04:23:35 28° WNW 04:27:25 10° NNW
Cosmos 1867 3.6 04:19:00 10° NW 04:24:27 71° WSW 04:29:51 10° SSE
